PEGASUS R/B (48845 NORAD) Tracking and Keplerian Element Data

This shows tracking and keplerian element data for the satellite.

Feedback or suggestion? Click here.




ElementValue
Catalog48845
NamePEGASUS R/B
Epoch Orbit456
Epoch Day193.89228784
Epoch Year2021
RAAN108.194
Inclination97.4778
Eccentricity0.0036603
Argument of Perigee181.6822
Mean Anonmoly178.431
Mean Motion15.46425132
Decay Rate4.363E-05
L11 48845U 21051B 21193.89228784 .00004363 00000-0 87897-4 0 9991
L22 48845 97.4778 108.1940 0036603 181.6822 178.4310 15.46425132 4564

Live tracking and technical data element details for PEGASUS R/B (NORAD 48845). PEGASUS R/B can be tracked NOW for your location showing map with azimuth and elevation plus other details from your city location.

Track the satellite on the map from your city or location and see movement details for azimuth, elevation, latitude, longitude, range, height, and movement on the map or in text.







IsCatalogInMostPopularTable: catalog: 48845, numindb: 31
Update: records affected: 1



GetName: 48845 PEGASUS R/B

Hit Count: updated at: Tue, 19 Oct 2021 09:37:28 GMT